• In Uzbekistan
  • List of Countries
  • For 7 days
  • Water Temperature
  • Satellite Maps
  • Weather Map
  • Weather Widgets
  • user-avatar
    Login

    Hourly Weather Kukvaz

    Today, 24 June, Sunday

    Time Temperature Precipitation Wind Pressure Humidity
    00:00 +13°C° 0 mm 2 mps 619 mmHg 58%
    01:00 +13°C° 0 mm 2 mps 619 mmHg 57%
    02:00 +13°C° 0 mm 2 mps 619 mmHg 56%
    03:00 +13°C° 0 mm 2 mps 618 mmHg 55%
    04:00 +14°C° 0 mm 2 mps 619 mmHg 56%
    05:00 +15°C° 0 mm 2 mps 620 mmHg 57%
    06:00 +16°C° 0 mm 1 mps 620 mmHg 58%
    07:00 +18°C° 0 mm 2 mps 621 mmHg 53%
    08:00 +20°C° 0 mm 2 mps 622 mmHg 48%
    09:00 +21°C° 0 mm 2 mps 622 mmHg 43%
    10:00 +23°C° 0 mm 2 mps 623 mmHg 43%
    11:00 +24°C° 0 mm 2 mps 623 mmHg 43%
    12:00 +24°C° 0 mm 3 mps 623 mmHg 43%
    13:00 +24°C° 0.2 mm 3 mps 623 mmHg 44%
    14:00 +24°C° 0.2 mm 3 mps 623 mmHg 45%
    15:00 +24°C° 0.2 mm 3 mps 623 mmHg 45%
    16:00 +23°C° 0 mm 2 mps 623 mmHg 48%
    17:00 +21°C° 0 mm 2 mps 622 mmHg 51%
    18:00 +21°C° 0 mm 1 mps 622 mmHg 54%
    19:00 +19°C° 0 mm 1 mps 622 mmHg 57%
    20:00 +18°C° 0 mm 1 mps 621 mmHg 60%
    21:00 +15°C° 0 mm 1 mps 621 mmHg 62%
    22:00 +15°C° 0 mm 1 mps 621 mmHg 62%
    23:00 +15°C° 0 mm 2 mps 621 mmHg 61%

    Tomorrow, 25 June, Monday

    Time Temperature Precipitation Wind Pressure Humidity
    00:00 +15°C° 0 mm 2 mps 621 mmHg 61%
    01:00 +14°C° 0 mm 2 mps 621 mmHg 61%
    02:00 +14°C° 0 mm 2 mps 621 mmHg 61%
    03:00 +14°C° 0 mm 2 mps 621 mmHg 60%
    04:00 +15°C° 0 mm 1 mps 622 mmHg 60%
    05:00 +16°C° 0 mm 1 mps 622 mmHg 59%
    06:00 +18°C° 0 mm 1 mps 623 mmHg 59%
    07:00 +20°C° 0 mm 1 mps 623 mmHg 54%
    08:00 +20°C° 0 mm 2 mps 624 mmHg 50%
    09:00 +23°C° 0 mm 2 mps 624 mmHg 46%
    10:00 +23°C° 0.1 mm 2 mps 625 mmHg 45%
    11:00 +24°C° 0.1 mm 3 mps 625 mmHg 44%
    12:00 +25°C° 0.1 mm 3 mps 625 mmHg 43%
    13:00 +25°C° 0.1 mm 3 mps 624 mmHg 44%
    14:00 +25°C° 0.1 mm 3 mps 624 mmHg 44%
    15:00 +25°C° 0.1 mm 3 mps 624 mmHg 44%
    16:00 +24°C° 0.1 mm 2 mps 624 mmHg 47%
    17:00 +23°C° 0.1 mm 2 mps 623 mmHg 50%
    18:00 +21°C° 0.1 mm 2 mps 623 mmHg 53%
    19:00 +20°C° 0 mm 2 mps 622 mmHg 55%
    20:00 +18°C° 0 mm 2 mps 622 mmHg 57%
    21:00 +16°C° 0 mm 2 mps 621 mmHg 59%
    22:00 +16°C° 0 mm 2 mps 621 mmHg 57%
    23:00 +16°C° 0 mm 2 mps 621 mmHg 55%

    Day after tomorrow, 26 June, Tuesday

    Time Temperature Precipitation Wind Pressure Humidity
    00:00 +16°C° 0 mm 2 mps 621 mmHg 53%
    01:00 +15°C° 0 mm 2 mps 621 mmHg 52%
    02:00 +15°C° 0 mm 2 mps 621 mmHg 51%
    03:00 +15°C° 0 mm 2 mps 621 mmHg 50%
    04:00 +16°C° 0 mm 2 mps 621 mmHg 50%
    05:00 +17°C° 0 mm 2 mps 621 mmHg 51%
    06:00 +19°C° 0 mm 1 mps 622 mmHg 52%
    07:00 +20°C° 0 mm 2 mps 622 mmHg 47%
    08:00 +23°C° 0 mm 2 mps 623 mmHg 42%
    09:00 +25°C° 0 mm 2 mps 623 mmHg 37%
    10:00 +25°C° 0 mm 2 mps 623 mmHg 36%
    11:00 +26°C° 0 mm 3 mps 624 mmHg 36%
    12:00 +27°C° 0 mm 3 mps 624 mmHg 35%
    13:00 +26°C° 0.1 mm 3 mps 623 mmHg 36%
    14:00 +26°C° 0.1 mm 3 mps 623 mmHg 36%
    15:00 +26°C° 0.1 mm 3 mps 623 mmHg 37%
    16:00 +25°C° 0 mm 2 mps 622 mmHg 41%
    17:00 +24°C° 0 mm 2 mps 622 mmHg 45%
    18:00 +23°C° 0 mm 2 mps 622 mmHg 49%
    19:00 +21°C° 0 mm 2 mps 621 mmHg 51%
    20:00 +19°C° 0 mm 2 mps 621 mmHg 52%
    21:00 +17°C° 0 mm 2 mps 620 mmHg 54%
    22:00 +17°C° 0 mm 2 mps 620 mmHg 52%
    23:00 +17°C° 0 mm 2 mps 620 mmHg 49%

    27 June, Wednesday

    Time Temperature Precipitation Wind Pressure Humidity
    00:00 +16°C° 0 mm 2 mps 620 mmHg 47%
    01:00 +16°C° 0 mm 2 mps 620 mmHg 45%
    02:00 +16°C° 0 mm 2 mps 619 mmHg 43%
    03:00 +16°C° 0 mm 2 mps 619 mmHg 41%
    04:00 +17°C° 0 mm 2 mps 620 mmHg 43%
    05:00 +18°C° 0 mm 2 mps 620 mmHg 44%
    06:00 +19°C° 0 mm 2 mps 620 mmHg 46%
    07:00 +21°C° 0 mm 2 mps 621 mmHg 41%
    08:00 +24°C° 0 mm 2 mps 622 mmHg 36%
    09:00 +25°C° 0 mm 2 mps 622 mmHg 31%
    10:00 +26°C° 0 mm 2 mps 622 mmHg 31%
    11:00 +27°C° 0 mm 2 mps 622 mmHg 30%
    12:00 +28°C° 0 mm 3 mps 622 mmHg 30%
    13:00 +28°C° 0 mm 3 mps 622 mmHg 31%
    14:00 +27°C° 0 mm 3 mps 622 mmHg 32%
    15:00 +27°C° 0 mm 3 mps 622 mmHg 33%
    16:00 +26°C° 0 mm 2 mps 622 mmHg 38%
    17:00 +25°C° 0 mm 2 mps 621 mmHg 42%
    18:00 +24°C° 0 mm 2 mps 621 mmHg 47%
    19:00 +21°C° 0 mm 2 mps 621 mmHg 49%
    20:00 +19°C° 0 mm 2 mps 620 mmHg 52%
    21:00 +18°C° 0 mm 2 mps 620 mmHg 54%
    22:00 +17°C° 0 mm 2 mps 620 mmHg 53%
    23:00 +17°C° 0 mm 2 mps 620 mmHg 52%

    28 June, Thursday

    Time Temperature Precipitation Wind Pressure Humidity
    00:00 +17°C° 0 mm 2 mps 620 mmHg 51%
    01:00 +17°C° 0 mm 2 mps 620 mmHg 50%
    02:00 +17°C° 0 mm 2 mps 620 mmHg 49%
    03:00 +16°C° 0 mm 2 mps 620 mmHg 48%
    04:00 +17°C° 0 mm 2 mps 621 mmHg 49%
    05:00 +18°C° 0 mm 2 mps 621 mmHg 50%
    06:00 +20°C° 0 mm 1 mps 622 mmHg 50%
    07:00 +22°C° 0 mm 1 mps 623 mmHg 46%
    08:00 +24°C° 0 mm 2 mps 623 mmHg 41%
    09:00 +25°C° 0 mm 2 mps 624 mmHg 36%
    10:00 +26°C° 0 mm 2 mps 624 mmHg 36%
    11:00 +26°C° 0 mm 3 mps 624 mmHg 36%
    12:00 +27°C° 0 mm 3 mps 624 mmHg 36%
    13:00 +27°C° 0 mm 3 mps 624 mmHg 36%
    14:00 +27°C° 0 mm 3 mps 624 mmHg 37%
    15:00 +27°C° 0 mm 3 mps 624 mmHg 37%
    16:00 +26°C° 0 mm 3 mps 624 mmHg 40%
    17:00 +25°C° 0 mm 2 mps 623 mmHg 44%
    18:00 +24°C° 0 mm 2 mps 623 mmHg 47%
    19:00 +21°C° 0 mm 2 mps 622 mmHg 49%
    20:00 +19°C° 0 mm 2 mps 622 mmHg 50%
    21:00 +17°C° 0 mm 2 mps 621 mmHg 52%
    22:00 +17°C° 0 mm 2 mps 621 mmHg 50%
    23:00 +17°C° 0 mm 2 mps 621 mmHg 48%

    29 June, Friday

    Time Temperature Precipitation Wind Pressure Humidity
    00:00 +17°C° 0 mm 2 mps 621 mmHg 46%
    01:00 +17°C° 0 mm 2 mps 621 mmHg 44%
    02:00 +17°C° 0 mm 2 mps 620 mmHg 42%
    03:00 +16°C° 0 mm 2 mps 620 mmHg 41%
    04:00 +17°C° 0 mm 2 mps 621 mmHg 42%
    05:00 +18°C° 0 mm 2 mps 621 mmHg 43%
    06:00 +19°C° 0 mm 2 mps 621 mmHg 45%
    07:00 +21°C° 0 mm 2 mps 622 mmHg 40%
    08:00 +24°C° 0 mm 2 mps 623 mmHg 34%
    09:00 +26°C° 0 mm 2 mps 623 mmHg 29%
    10:00 +27°C° 0 mm 2 mps 623 mmHg 29%
    11:00 +28°C° 0 mm 3 mps 623 mmHg 28%
    12:00 +29°C° 0 mm 3 mps 623 mmHg 28%
    13:00 +29°C° 0 mm 3 mps 623 mmHg 29%
    14:00 +29°C° 0 mm 3 mps 623 mmHg 29%
    15:00 +29°C° 0 mm 3 mps 623 mmHg 30%
    16:00 +27°C° 0 mm 3 mps 622 mmHg 34%
    17:00 +26°C° 0 mm 2 mps 622 mmHg 38%
    18:00 +25°C° 0 mm 2 mps 622 mmHg 42%
    19:00 +23°C° 0 mm 2 mps 621 mmHg 44%
    20:00 +20°C° 0 mm 2 mps 621 mmHg 45%
    21:00 +18°C° 0 mm 2 mps 620 mmHg 47%
    22:00 +18°C° 0 mm 2 mps 620 mmHg 46%
    23:00 +18°C° 0 mm 2 mps 620 mmHg 44%
    Show more